This is the latest recevied weather packets stored in our database for station/object KC2G. If no packets are shown the sender has not sent any weather packets the latest 10 day(s).
| Time | Temp. | Humidity | Pressure | Rain* | Wind** | Luminosity | Snow |
|---|---|---|---|---|---|---|---|
| 1777791655 | 7.22° C | 62% | 1010.6 hPa | 0 mm | 0 m/s | - | - |
| 1777790963 | 7.22° C | 58% | 1010.6 hPa | 0 mm | 0 m/s | - | - |
| 1777790755 | 7.22° C | 58% | 1010.6 hPa | 0 mm | 0 m/s | - | - |
| 1777790029 | 7.78° C | 57% | 1010.5 hPa | 0 mm | 0 m/s | - | - |
| 1777789856 | 7.78° C | 57% | 1010.5 hPa | 0 mm | 0 m/s | - | - |
| 1777789145 | 8.33° C | 55% | 1010.5 hPa | 0 mm | 0 m/s | - | - |
| 1777788955 | 8.33° C | 55% | 1010.5 hPa | 0 mm | 0 m/s | - | - |
| 1777788305 | 8.33° C | 55% | 1010.6 hPa | 0 mm | 0 m/s | - | - |
| 1777788055 | 8.33° C | 55% | 1010.6 hPa | 0 mm | 0 m/s | - | - |
| 1777787155 | 8.33° C | 55% | 1010.7 hPa | 0 mm | 0 m/s | - | - |
| 1777786378 | 8.89° C | 53% | 1010.9 hPa | 0 mm | 0 m/s | - | - |
| 1777786255 | 8.89° C | 53% | 1010.9 hPa | 0 mm | 0 m/s | - | - |
| 1777785354 | 8.89° C | 51% | 1010.9 hPa | 0 mm | 0 m/s | - | - |
| 1777784455 | 8.89° C | 50% | 1010.9 hPa | 0 mm | 0 m/s | - | - |
| 1777783554 | 9.44° C | 50% | 1011.1 hPa | 0 mm | 0 m/s | - | - |
| 1777782655 | 9.44° C | 47% | 1011.1 hPa | 0 mm | 0 m/s | - | - |
| 1777781754 | 9.44° C | 45% | 1011.1 hPa | 0 mm | 0.45 m/s, 342° | - | - |
| 1777780961 | 10° C | 45% | 1011 hPa | 0 mm | 0.45 m/s, 314° | - | - |
| 1777780855 | 10° C | 45% | 1011 hPa | 0 mm | 0.45 m/s, 314° | - | - |
| 1777779954 | 10° C | 44% | 1011 hPa | 0 mm | 0.45 m/s, 317° | - | - |
| 1777779055 | 10° C | 45% | 1010.9 hPa | 0 mm | 0.45 m/s, 306° | - | - |
| 1777778154 | 10° C | 48% | 1010.9 hPa | 0 mm | 0 m/s | - | - |
| 1777777316 | 10° C | 47% | 1010.9 hPa | 0 mm | 0 m/s | - | - |
| 1777777255 | 10° C | 47% | 1010.9 hPa | 0 mm | 0 m/s | - | - |
| 1777776449 | 10.56° C | 46% | 1010.8 hPa | 0 mm | 0.45 m/s, 300° | - | - |
* Rain latest hour (hover to see other rain measurements)
** Current wind speed in m/s (hover to see current wind gust speed)